Regional Weather Roundup
Issued by NWS

Home | Current Version | Previous Version | Text Only | Print | Product List | Glossary On
Versions: 1 2 3 4 5 6 7 8 9 10 11 12 13 14 15 16 17 18 19 20 21 22 23 24 25 26 27
000
ASUS42 KKEY 311810
RWRKEY

FLORIDA REGIONAL WEATHER ROUNDUP FOR THE FLORIDA KEYS
NATIONAL WEATHER SERVICE KEY WEST FLORIDA
200 PM EDT TUE MAY 31 2016

...SOUTH FLORIDA AND THE KEYS...

CITY           SKY/WX    TMP DP  RH WIND       PRES   REMARKS
FORT MYERS     MOSUNNY   90  65  43 N7        29.94F HX  92
SW REGIONAL AP SUNNY     90  67  46 VRB5      29.95F HX  93
NAPLES         MOSUNNY   87  70  56 W10       29.95F HX  92
MIAMI          CLOUDY    81  70  69 CALM      29.98S
WEST KENDALL   CLOUDY    75  70  84 NW5       29.98F
HOMESTEAD      DRIZZLE   79  70  73 N6        29.96F
MARATHON       CLOUDY    85  72  65 N7        29.95F HX  91
BOCA CHICA NAS MOSUNNY   84  72  67 VRB7      29.95F
KEY WEST INTL  CLOUDY    83  73  72 SE5       29.95F

...INTERNATIONAL WEATHER...

CITY           SKY/WX    TMP DP  RH WIND       PRES   REMARKS
NASSAU BAHAMAS PTSUNNY   84  77  79 N7        29.97S THUNDER HX  94
CANCUN MEXICO  PTSUNNY   86  75  70 E12       29.91S HX  95
COZUMEL MEXICO PTSUNNY   86  73  66 SE10      29.89F HX  93

ADJACENT COASTAL WATERS...

STATION/POSITION TIME  SKY/WX   TEMP    WIND        PRES    WAVE
                                AIR SEA DIR/SP/G            HT/PER
                 (UTC)          (F)     (DEG/KT/KT) (MB)    (FT/S)
PULASKI SHOAL LI 1800            82      60/  6/  7 1014.5F
SAND KEY         1750            81                 1014.9F
SOMBRERO KEY     NOT AVBL
LONG KEY         1700            82 88   CALM  /  3 1014.6F
MOLASSES REEF    1600            82 84  130/  3/  4 1015.4
FOWEY ROCKS      1800            80 85   90/ 10/ 10 1015.4R

$$




USA.gov is the U.S. government's official web portal to all federal, state and local government web resources and services.